Location: *
(43.9900°N, 3.4811°E)
Time: 07:58:41
(UTC+00:00)

Sich 1 Rocket - Pass Details

Date: 25 August 2019
Orbit: 616 x 653 km, 82.5° (Epoch: 22 September)

Event Time Altitude Azimuth Distance (km) Brightness Sun altitude
Exits shadow 20:57:43 53° 203° (SSW) 788 3.9 -23.1°
Maximum altitude 20:58:45 80° 278° (W) 653 3.6 -23.2°
Drops below altitude 10° 21:03:15 10° 6° (N) 2,022 6.7 -23.8°
Sets 21:05:29 0° 8° (N) 2,928 7.5 -24.1°
